Weather in Chirki

Russia / Tyumen Oblast     55°45′08″N   68°59′20″E
temp.,
°C
wind,
m/s
gust,
m/s
humid.,
%
clouds,
%
prec.,
mm/h
press.,
hPa
HPBL,
m
12 may, wed
wed1223:00+14wnw483998 0.0 1025110
02:00+13wnw484451 0.0 1024106
05:00+11wnw464910 0.0 102589
08:00+18wnw583432 0.0 1024431
11:00+20nw6833100 0.0 1024921
14:00+21nnw81043100 0.0 10232036
17:00+20n7936100 0.0 10241929
20:00+15n594198 0.0 1025256
13 may, thu
thu1323:00+12n3346100 0.0 102539
02:00+12wnw3346100 0.0 102527
05:00+12w375452 0.0 1024177
08:00+16wnw6135170 0.0 1023674
11:00+22nw7104120 0.0 10221740
14:00+25nw81134100 0.0 10202816
17:00+24n71039100 0.0 10212250
20:00+19nnw495944 0.0 1022263
14 may, fri
fri1423:00+15n49605 0.0 1024162
02:00+11nne34625 0.0 102662
05:00+10ene22725 0.0 102838
08:00+15ese21525 0.0 1028387
11:00+21w123121 0.0 10281100
14:00+24w33275 0.0 10261576
17:00+25wsw3628100 0.0 10252269
20:00+21ssw484465 0.0 1023124
15 may, sat
sat1523:00+19sw5134658 0.0 1023259
02:00+18wsw6145347 0.0 1022269
05:00+17wsw613565 0.0 1022245
08:00+23w684114 0.0 1021389
11:00+28wnw792783 0.0 10211715
14:00+30wnw792534 0.0 10202647
17:00+29nw7102895 0.0 10193160
20:00+24wnw4104139 0.0 1019187
16 may, sun
sun1623:00+21w4940100 0.4 1018125
02:00+18nw22571 0.1 101935
05:00+17wsw466010 0.1 101978
08:00+24wnw610414 0.0 1019471
11:00+29wnw79305 0.0 10181801
14:00+31wnw78255 0.0 10172506
17:00+30nw68245 0.0 10172591
20:00+25w45385 0.0 101763